Location: Unspecified
(0.0000°N, 0.0000°E)
Time: 10:42:42
(UTC+00:00)

Hubble Space Telescope - Pass Details

Date: 05 July 2018
Orbit: 536 x 540 km, 28.5° (Epoch: 13 October)

Event Time Altitude Azimuth Distance (km) Brightness Sun altitude
Exits shadow 05:12:24 17° 258° (WSW) 1,369 2.2 -12.0°
Maximum altitude 05:15:18 52° 329° (NNW) 662 1.2 -11.3°
Drops below altitude 10° 05:19:19 10° 47° (NE) 1,775 4.7 -10.4°
Sets 05:21:37 0° 52° (NE) 2,664 6.1 -9.9°
